TimeCST,TemperatureF,Dew PointF,Humidity,Sea Level PressureIn,VisibilityMPH,Wind Direction,Wind SpeedMPH,Gust SpeedMPH,PrecipitationIn,Events,Conditions,WindDirDegrees,DateUTC
12:52 AM,23.0,16.0,74,29.90,-9999.0,SE,5.8,-,N/A,,Unknown,140,2013-01-08 06:52:00
1:52 AM,24.1,17.1,75,29.87,-9999.0,SSE,9.2,-,N/A,,Unknown,150,2013-01-08 07:52:00
2:52 AM,26.1,17.1,69,29.86,-9999.0,SSE,8.1,-,N/A,,Unknown,160,2013-01-08 08:52:00
3:52 AM,26.1,17.1,69,29.82,-9999.0,SE,9.2,-,N/A,,Unknown,130,2013-01-08 09:52:00
4:52 AM,24.1,17.1,75,29.81,-9999.0,SSE,6.9,-,N/A,,Unknown,150,2013-01-08 10:52:00
5:52 AM,27.0,19.0,72,29.78,-9999.0,SE,12.7,-,N/A,,Unknown,140,2013-01-08 11:52:00
6:52 AM,30.9,19.9,64,29.76,-9999.0,South,11.5,-,N/A,,Unknown,170,2013-01-08 12:52:00
7:52 AM,34.0,21.0,59,29.74,-9999.0,South,11.5,-,N/A,,Unknown,190,2013-01-08 13:52:00
8:52 AM,32.0,19.9,61,29.77,-9999.0,SW,8.1,-,N/A,,Unknown,220,2013-01-08 14:52:00
9:52 AM,30.9,21.0,67,29.78,-9999.0,West,11.5,-,N/A,,Unknown,260,2013-01-08 15:52:00
10:52 AM,34.0,21.9,61,29.79,-9999.0,West,13.8,-,N/A,,Unknown,260,2013-01-08 16:52:00
11:52 AM,35.1,24.1,64,29.81,-9999.0,WNW,13.8,-,N/A,,Unknown,290,2013-01-08 17:52:00
12:52 PM,36.0,26.1,67,29.80,-9999.0,WNW,10.4,-,N/A,,Unknown,290,2013-01-08 18:52:00
1:52 PM,39.9,28.9,65,29.80,-9999.0,WNW,9.2,-,N/A,,Unknown,300,2013-01-08 19:52:00
2:52 PM,41.0,30.0,65,29.84,-9999.0,West,13.8,-,N/A,,Unknown,280,2013-01-08 20:52:00
3:52 PM,41.0,30.0,65,29.88,-9999.0,WNW,12.7,-,N/A,,Unknown,290,2013-01-08 21:52:00
4:52 PM,39.0,30.9,73,29.93,-9999.0,WNW,11.5,-,N/A,,Unknown,290,2013-01-08 22:52:00
5:52 PM,37.0,30.0,76,29.95,-9999.0,West,10.4,-,N/A,,Unknown,270,2013-01-08 23:52:00
6:52 PM,36.0,30.0,79,29.97,-9999.0,West,11.5,-,N/A,,Unknown,270,2013-01-09 00:52:00
7:52 PM,37.0,30.0,76,30.00,-9999.0,West,11.5,-,N/A,,Unknown,260,2013-01-09 01:52:00
8:52 PM,35.1,28.0,76,30.04,-9999.0,West,10.4,-,N/A,,Unknown,270,2013-01-09 02:52:00
9:52 PM,35.1,28.0,76,30.07,-9999.0,West,12.7,-,N/A,,Unknown,270,2013-01-09 03:52:00
10:52 PM,34.0,28.0,79,30.11,-9999.0,West,12.7,-,N/A,,Unknown,280,2013-01-09 04:52:00
11:52 PM,35.1,27.0,72,30.14,-9999.0,WNW,12.7,-,N/A,,Unknown,290,2013-01-09 05:52:00